Temp
49 43 40 45 47 41 39 38 40 45 43 42 46 47 51 53 49 49 47 48 50 50 52 51 50 48 46 46 45 45 44 44 45 46 46 46 46 46 46 45 46 46 47 48
42 39 41 42 41 39 39 38 39 43 41 40 44 40 47 45 39 41 42 47 47 50 50 49 48 46 45 45 45 44 44 44 46 47 47 47 46 45 45 44 43 45 46 46
40 38 40 38 37 35 36 35 38 37 38 41 39 39 43 38 38 40 41 42 45 45 48 48 43 45 45 45 45 44 44 44 45 45 44 44 44 44 44 44 44 42 45 44
39 40 37 36 34 34 32 36 33 33 32 29 34 30 37 37 35 33 35 37 38 41 45 48 43 37 41 43 45 44 43 43 44 45 45 45 45 43 43 43 43 42 43 43
32 34 34 33 29 33 30 35 34 30 30 29 32 29 32 38 31 28 30 33 35 37 40 43 43 36 39 36 39 42 42 43 42 43 45 45 44 43 43 43 42 42 42 43
33 38 33 31 33 33 35 33 32 31 29 21 33 30 24 25 23 27 29 31 32 34 36 40 46 38 34 34 35 38 36 37 38 40 43 43 43 43 42 42 42 42 42 42
32 29 33 33 30 34 30 28 21 19 18 22 24 24 19 24 27 28 27 29 32 33 34 37 43 37 33 33 33 33 34 33 33 35 39 40 42 42 42 42 41 41 41 41
25 20 25 27 25 25 26 25 23 17 19 20 23 20 19 27 31 32 31 31 33 32 33 36 42 40 35 33 33 32 32 31 32 32 34 38 40 41 41 40 41 41 40 40
22 21 26 27 27 26 24 22 25 22 21 22 22 19 25 29 28 30 29 30 30 32 31 33 37 39 35 33 32 32 32 31 31 32 32 34 38 38 39 39 40 40 40 40
25 19 26 27 27 27 24 25 21 22 15 15 17 19 16 19 22 26 25 26 28 32 32 32 34 35 34 33 32 32 32 31 31 31 31 32 33 37 38 38 37 37 38 38
30 23 22 27 20 19 25 24 23 22 23 17 16 13 21 20 22 22 24 26 27 30 31 31 32 33 33 33 31 31 31 31 30 30 31 30 31 33 36 36 37 36 36 36
30 23 19 17 19 20 21 21 22 18 15 21 19 12 23 23 23 24 24 27 28 30 31 31 32 33 33 33 33 32 32 31 31 30 31 29 30 30 32 34 35 36 34 35
28 21 15 14 18 23 20 21 20 19 20 17 14 11 23 24 24 25 25 27 29 30 30 31 31 31 31 32 33 33 33 33 32 32 30 29 29 28 29 32 33 33 33 33
29 23 18 12 15 22 17 18 19 17 17 15 15 13 18 20 21 24 25 27 28 28 28 28 29 30 32 31 31 32 33 33 33 32 30 28 28 27 28 30 31 30 31 30
26 16 21 21 21 21 18 17 18 14 13 14 13 15 16 19 20 23 27 28 29 29 29 29 29 29 30 31 32 32 33 33 32 31 29 28 28 28 27 27 26 28 29 29
27 18 21 15 21 21 16 19 21 18 16 15 16 16 22 24 26 25 25 26 27 28 29 30 31 31 31 31 31 32 32 32 32 30 29 29 28 27 25 25 24 25 26 26
20 20 17 14 19 19 14 18 17 18 19 17 14 18 23 23 24 24 24 24 25 27 28 29 30 31 32 33 33 31 32 33 30 28 27 28 26 25 23 22 22 21 23 26
20 18 18 15 15 5 14 25 22 20 20 23 21 22 25 25 26 27 29 27 26 27 28 29 30 32 34 36 35 35 34 33 31 28 27 26 25 23 23 21 20 21 24 24
24 19 15 11 13 15 17 21 20 17 18 26 23 25 27 28 27 27 33 31 29 29 29 29 31 33 35 35 36 35 34 33 33 31 29 28 23 22 22 20 20 22 24 25
22 19 17 15 9 6 19 25 28 25 13 27 26 25 24 24 16 23 29 28 28 29 30 29 30 31 33 35 35 33 32 32 32 33 33 31 26 22 22 22 22 24 25 25
17 17 13 16 12 17 26 26 27 11 14 27 27 26 23 20 23 26 27 26 28 28 27 28 28 28 30 33 33 31 31 31 33 35 35 34 31 25 24 23 25 24 23 26
15 14 15 15 10 8 29 22 16 21 26 26 26 25 21 22 22 22 23 23 24 23 24 25 25 26 29 31 31 29 29 33 34 34 33 33 34 30 27 24 24 24 23 23
13 18 17 17 19 25 28 21 23 22 20 23 19 20 18 16 17 19 19 19 20 20 22 23 23 23 26 28 29 27 30 31 31 31 31 31 33 32 30 24 23 23 23 24
20 19 17 17 20 22 24 23 24 22 19 16 16 13 14 12 14 14 15 15 16 18 18 20 20 20 21 25 26 27 28 29 29 28 28 29 31 32 31 29 26 24 24 23
20 18 18 18 22 21 22 24 21 18 15 12 12 11 9 9 9 10 10 12 13 14 16 17 17 17 19 22 23 25 26 27 25 26 27 28 29 30 30 30 28 26 27 27
19 18 16 18 20 20 21 19 15 10 8 7 3 6 9 8 6 8 8 10 10 10 14 13 14 15 16 18 19 21 24 24 22 22 25 27 28 29 29 29 28 32 32 33
MSLP
1009.97 1009.78 1009.16 1008.94 1009.11 1009.42 1009.42 1008.83 1008.38 1008.52 1009.73 1009.62 1008.91 1008.97 1009.13 1010.01 1011.53 1012.03 1012.83 1013.16 1013.41 1014.02 1014.93 1016.09 1017.17 1018.37 1019.09 1019.73 1020.15 1020.73 1020.82 1021.14 1021.45 1021.42 1021.30 1021.53 1021.90 1022.10 1022.28 1022.72 1022.72 1022.77 1022.72 1022.43
1010.28 1009.94 1010.44 1010.52 1010.55 1010.54 1010.28 1009.82 1009.39 1009.68 1010.46 1010.47 1009.45 1009.79 1010.29 1011.50 1013.12 1013.78 1014.17 1013.90 1014.29 1014.27 1015.00 1016.19 1017.32 1018.39 1019.18 1019.76 1020.27 1020.64 1021.00 1021.26 1021.43 1021.54 1021.60 1021.71 1022.01 1022.30 1022.69 1023.26 1023.22 1023.15 1022.99 1023.01
1010.17 1011.31 1011.60 1011.60 1011.58 1011.54 1011.27 1010.96 1010.43 1010.55 1011.07 1010.99 1010.63 1009.88 1010.47 1013.26 1014.42 1015.08 1015.57 1015.78 1015.62 1015.45 1015.34 1016.28 1017.65 1018.33 1019.03 1019.67 1020.20 1020.54 1021.17 1021.35 1021.75 1021.83 1022.05 1022.19 1022.45 1022.70 1022.70 1023.06 1023.30 1023.48 1023.43 1023.54
1011.48 1012.42 1012.55 1012.56 1012.72 1012.91 1012.15 1012.53 1012.44 1012.17 1011.98 1011.19 1011.60 1010.48 1011.53 1013.41 1014.81 1016.30 1017.18 1017.28 1017.16 1016.82 1016.42 1016.48 1017.65 1018.65 1019.37 1019.79 1020.16 1020.77 1021.32 1021.55 1021.85 1021.94 1022.04 1022.03 1022.04 1022.12 1022.68 1023.09 1023.54 1023.81 1023.63 1023.73
1013.04 1013.32 1013.49 1013.64 1014.46 1014.29 1013.88 1013.77 1013.43 1013.44 1012.96 1012.58 1012.02 1012.46 1012.72 1014.10 1015.68 1017.36 1018.15 1018.51 1018.46 1018.14 1017.73 1017.21 1017.54 1019.09 1019.76 1020.41 1020.69 1021.23 1021.59 1021.89 1022.21 1022.31 1022.24 1022.31 1022.48 1022.67 1022.95 1023.23 1023.64 1023.72 1023.85 1024.20
1014.10 1014.93 1015.29 1015.55 1015.52 1015.28 1014.99 1014.56 1014.31 1014.10 1013.72 1013.05 1011.97 1012.94 1014.70 1016.44 1018.28 1018.72 1019.14 1019.12 1019.07 1018.90 1018.45 1017.92 1017.59 1019.18 1020.36 1021.00 1021.36 1021.69 1021.97 1022.46 1022.71 1022.68 1022.79 1022.77 1022.89 1022.92 1023.08 1023.27 1023.52 1023.70 1023.86 1024.18
1014.74 1015.62 1016.33 1016.66 1016.04 1015.99 1015.86 1015.23 1014.48 1014.41 1013.97 1012.81 1013.89 1014.92 1017.11 1018.52 1019.43 1019.86 1020.10 1019.89 1019.58 1019.30 1018.85 1018.30 1017.85 1019.24 1020.58 1021.23 1021.66 1022.04 1022.47 1023.00 1023.33 1023.41 1023.24 1023.29 1023.08 1023.22 1023.37 1023.32 1023.63 1023.76 1023.93 1024.26
1015.38 1016.55 1017.36 1017.83 1017.64 1017.08 1016.43 1016.07 1014.71 1013.53 1013.04 1013.47 1015.00 1015.92 1018.26 1019.62 1020.10 1020.45 1020.65 1020.50 1020.11 1019.69 1019.28 1018.75 1018.25 1019.15 1020.58 1021.34 1021.85 1022.37 1022.86 1023.41 1023.76 1023.91 1023.93 1023.96 1023.89 1023.79 1023.77 1023.97 1024.19 1024.14 1024.38 1024.79
1016.74 1017.14 1018.33 1018.69 1018.69 1018.53 1017.57 1017.03 1016.70 1015.29 1014.60 1014.45 1015.40 1017.97 1019.43 1020.23 1020.73 1020.97 1021.08 1020.91 1020.60 1020.23 1020.02 1019.76 1019.54 1019.68 1020.69 1021.46 1022.08 1022.55 1023.02 1023.50 1023.86 1024.05 1024.31 1024.38 1024.26 1024.15 1024.37 1024.49 1024.58 1024.61 1024.67 1025.11
1018.05 1017.87 1018.24 1018.86 1019.16 1018.98 1018.41 1018.16 1017.26 1016.18 1015.16 1014.76 1016.01 1017.74 1019.77 1021.15 1021.68 1021.85 1021.78 1021.59 1021.37 1020.83 1020.63 1020.41 1020.37 1020.55 1021.08 1021.69 1022.23 1022.79 1023.21 1023.53 1023.87 1024.12 1024.40 1024.55 1024.64 1024.64 1024.76 1024.79 1024.72 1024.75 1024.84 1025.26
1018.45 1018.68 1018.66 1018.86 1019.83 1019.88 1019.01 1018.21 1017.92 1017.32 1016.25 1015.84 1016.47 1019.48 1021.69 1022.38 1022.84 1022.84 1022.73 1022.45 1022.16 1021.64 1021.33 1021.26 1021.12 1021.28 1021.59 1022.03 1022.43 1022.81 1023.20 1023.56 1023.96 1024.26 1024.50 1024.68 1024.80 1024.89 1024.80 1024.67 1024.59 1024.77 1025.21 1025.35
1018.92 1018.91 1018.67 1020.13 1020.99 1021.15 1020.63 1019.75 1019.13 1018.15 1017.48 1017.39 1018.18 1021.13 1022.81 1023.31 1023.66 1023.64 1023.42 1023.03 1022.62 1022.31 1022.15 1021.96 1021.78 1021.87 1022.03 1022.26 1022.62 1023.01 1023.33 1023.59 1023.88 1024.15 1024.39 1024.65 1024.84 1024.89 1024.80 1024.76 1024.87 1025.11 1025.29 1025.34
1019.66 1019.38 1019.13 1020.29 1021.17 1021.13 1020.73 1020.84 1020.59 1020.03 1019.43 1018.90 1019.65 1021.90 1023.41 1023.85 1024.02 1023.99 1023.71 1023.37 1022.89 1022.82 1022.75 1022.59 1022.54 1022.55 1022.66 1022.70 1022.78 1022.94 1023.13 1023.29 1023.49 1023.76 1024.05 1024.24 1024.43 1024.64 1024.76 1024.89 1025.04 1025.19 1025.26 1025.28
1020.46 1020.07 1019.89 1020.08 1020.52 1020.53 1020.95 1021.35 1021.22 1020.99 1020.33 1020.54 1021.00 1022.41 1023.48 1024.09 1024.28 1024.14 1023.91 1023.68 1023.47 1023.40 1023.39 1023.28 1023.21 1023.22 1023.13 1023.12 1023.10 1022.97 1022.97 1023.03 1023.16 1023.38 1023.69 1023.91 1024.18 1024.43 1024.65 1024.84 1025.05 1025.29 1025.38 1025.53
1021.02 1020.81 1020.50 1020.71 1020.84 1020.94 1021.49 1021.63 1021.74 1021.78 1022.05 1021.92 1022.59 1022.87 1023.87 1024.34 1024.49 1024.33 1024.01 1023.71 1023.45 1023.38 1023.46 1023.47 1023.50 1023.48 1023.37 1023.20 1023.15 1023.06 1023.02 1022.97 1023.03 1023.06 1023.30 1023.52 1023.79 1024.09 1024.44 1024.74 1024.97 1025.20 1025.31 1025.40
1021.64 1021.21 1021.18 1021.24 1021.24 1021.25 1021.54 1021.77 1021.93 1022.33 1022.62 1022.79 1023.03 1023.27 1024.07 1024.29 1024.18 1024.07 1024.03 1023.79 1023.49 1023.39 1023.58 1023.61 1023.51 1023.41 1023.28 1023.16 1023.02 1022.91 1022.83 1022.79 1022.86 1022.90 1022.95 1023.13 1023.39 1023.70 1024.03 1024.42 1024.80 1025.01 1025.14 1025.24
1022.33 1021.89 1021.54 1020.82 1021.38 1021.37 1021.40 1021.75 1022.28 1022.63 1022.94 1023.20 1023.11 1023.54 1023.74 1023.88 1023.94 1024.01 1023.90 1023.86 1023.63 1023.55 1023.62 1023.60 1023.47 1023.21 1023.01 1022.81 1022.69 1022.58 1022.45 1022.35 1022.44 1022.47 1022.57 1022.75 1023.05 1023.40 1023.77 1024.18 1024.53 1024.73 1024.84 1024.92
1022.79 1022.58 1022.27 1021.43 1021.76 1021.47 1021.95 1022.06 1022.40 1022.52 1022.58 1022.80 1023.16 1023.41 1023.58 1023.72 1023.84 1023.74 1023.28 1023.48 1023.67 1023.81 1023.79 1023.64 1023.33 1022.95 1022.53 1022.33 1022.21 1022.11 1022.06 1022.00 1021.93 1021.98 1022.11 1022.30 1022.49 1022.86 1023.22 1023.66 1024.00 1024.28 1024.44 1024.54
1023.34 1023.04 1022.53 1022.01 1021.23 1021.38 1021.80 1021.93 1022.25 1022.39 1022.24 1022.45 1022.87 1023.15 1023.34 1023.63 1023.84 1023.00 1022.90 1023.55 1023.83 1023.89 1023.86 1023.51 1023.09 1022.56 1022.07 1021.86 1021.84 1021.64 1021.52 1021.39 1021.26 1021.21 1021.37 1021.56 1021.93 1022.30 1022.63 1023.00 1023.37 1023.66 1023.94 1024.02
1023.45 1023.48 1023.03 1022.28 1021.51 1020.72 1020.93 1021.78 1022.48 1022.79 1022.15 1022.53 1023.01 1023.32 1023.70 1024.02 1023.58 1023.02 1023.62 1024.14 1024.16 1024.12 1023.81 1023.60 1023.19 1022.56 1021.83 1021.50 1021.39 1021.32 1021.07 1020.82 1020.54 1020.35 1020.25 1020.52 1021.08 1021.56 1021.83 1022.07 1022.45 1022.83 1023.18 1023.35
1022.94 1022.92 1022.56 1021.84 1021.52 1020.89 1021.32 1022.38 1022.99 1023.28 1023.56 1023.30 1023.67 1023.99 1024.34 1024.46 1024.50 1024.36 1024.46 1024.42 1024.44 1024.26 1024.10 1023.85 1023.41 1022.78 1022.15 1021.65 1021.28 1020.89 1020.65 1020.25 1020.01 1019.80 1019.68 1019.63 1019.90 1020.60 1020.91 1021.25 1021.60 1021.96 1022.49 1022.76
1023.10 1022.78 1022.37 1022.43 1022.03 1021.61 1021.94 1023.21 1023.54 1023.79 1023.77 1024.15 1024.54 1024.93 1025.32 1025.44 1025.30 1025.30 1025.15 1024.95 1024.76 1024.64 1024.32 1024.06 1023.54 1022.96 1022.32 1021.78 1021.29 1020.68 1020.26 1019.84 1019.63 1019.41 1019.21 1019.06 1018.97 1019.47 1020.05 1020.44 1020.80 1021.29 1021.78 1022.19
1023.89 1023.59 1023.16 1022.82 1022.14 1022.44 1022.67 1023.53 1024.08 1024.65 1025.12 1025.36 1025.98 1026.35 1026.64 1026.54 1026.28 1026.11 1025.85 1025.72 1025.48 1025.21 1024.74 1024.33 1023.80 1023.07 1022.46 1021.93 1021.34 1020.58 1020.01 1019.80 1019.53 1019.17 1018.87 1018.68 1018.41 1018.57 1019.15 1019.77 1020.12 1020.69 1021.08 1021.30
1023.82 1024.24 1024.01 1023.46 1023.04 1023.13 1023.55 1024.32 1024.85 1025.58 1026.17 1026.89 1027.36 1027.65 1027.72 1027.55 1027.32 1027.02 1026.76 1026.47 1026.08 1025.69 1025.30 1024.76 1024.09 1023.38 1022.63 1022.03 1021.35 1020.72 1020.21 1019.89 1019.48 1019.07 1018.69 1018.47 1018.01 1017.80 1018.23 1018.79 1019.34 1019.63 1019.94 1020.41
1024.69 1024.80 1024.24 1023.80 1023.35 1023.85 1024.27 1024.95 1025.76 1026.61 1027.35 1027.91 1028.27 1028.46 1028.49 1028.45 1028.10 1027.89 1027.37 1026.96 1026.60 1026.22 1025.64 1025.05 1024.37 1023.66 1022.82 1022.17 1021.44 1020.88 1020.39 1019.90 1019.35 1018.83 1018.38 1018.01 1017.63 1017.38 1017.42 1017.72 1018.22 1018.52 1018.61 1019.09
1024.91 1024.75 1024.76 1024.01 1024.38 1024.67 1025.04 1025.99 1026.89 1027.65 1028.20 1028.66 1029.01 1028.93 1028.84 1028.78 1028.53 1028.21 1027.62 1027.20 1026.79 1026.17 1025.51 1024.99 1024.44 1023.72 1022.95 1022.28 1021.57 1020.94 1020.36 1019.85 1019.30 1018.65 1018.05 1017.49 1017.05 1016.89 1016.89 1017.05 1017.41 1017.65 1017.95 1018.36
Wind_Speed
7 7 9 12 11 2 3 2 5 3 5 3 11 12 7 3 5 4 4 4 7 8 10 11 12 11 10 9 9 7 7 7 4 4 4 3 3 3 5 5 6 6 5 6
5 9 6 3 1 3 6 9 11 3 3 3 7 7 7 11 8 5 7 4 3 5 10 11 12 12 11 10 9 8 7 6 3 2 3 3 3 4 5 4 5 6 6 6
9 6 3 1 3 4 5 8 9 4 2 6 6 12 12 11 13 12 10 9 6 4 7 11 10 12 11 10 10 8 7 6 4 5 4 4 4 3 4 3 4 5 5 5
4 3 1 2 2 3 7 3 2 3 4 5 1 2 7 8 9 15 13 12 10 8 8 9 12 2 8 7 9 8 7 6 6 3 3 3 1 4 4 4 3 4 5 5
5 3 3 2 4 4 5 1 1 1 5 4 9 5 9 8 6 15 13 13 11 10 8 10 12 8 8 3 6 7 7 6 5 3 3 2 4 5 3 3 3 4 4 4
6 4 4 3 1 2 5 3 3 3 2 6 12 10 6 5 9 13 14 15 13 11 9 9 8 11 7 5 5 7 4 7 5 4 4 4 4 4 4 3 3 3 2 3
6 5 3 4 3 4 2 5 5 7 7 3 2 4 8 6 8 11 12 14 14 11 9 7 11 12 10 10 8 7 7 6 4 3 5 4 5 4 4 3 3 2 2 2
4 5 4 6 4 4 3 3 4 4 3 6 4 4 6 5 9 11 11 10 13 13 11 7 6 11 9 8 9 8 7 7 5 4 3 3 3 2 3 3 2 3 2 2
5 5 4 4 3 4 4 4 3 5 3 4 7 6 6 6 10 13 14 16 16 14 11 7 4 3 8 9 7 6 6 5 4 4 3 2 2 2 2 2 2 1 2 1
3 4 1 3 2 2 3 2 4 4 4 6 4 6 7 9 11 12 15 15 15 15 12 9 3 2 6 7 7 6 5 5 4 4 3 2 1 1 1 1 1 1 1 1
4 2 5 5 5 6 0 2 3 4 4 4 2 6 5 7 9 11 12 13 13 13 12 9 7 4 5 6 5 5 5 5 4 4 4 4 4 4 3 2 1 1 1 1
3 4 3 7 2 1 2 5 4 4 2 1 4 6 5 7 8 10 11 12 11 11 11 10 8 7 5 4 4 3 3 4 5 5 6 5 5 5 5 4 4 3 3 2
6 2 3 5 3 4 1 5 4 4 3 4 4 6 4 5 7 9 11 12 11 9 11 10 10 10 8 6 3 1 2 4 4 6 6 6 6 6 6 5 5 4 4 3
4 4 5 6 7 4 4 5 3 3 3 3 5 9 5 6 8 9 11 11 8 8 9 9 9 8 7 5 6 5 4 3 3 5 6 6 7 7 6 6 6 5 4 4
4 2 3 4 5 5 4 3 4 3 3 4 3 3 4 4 5 7 9 10 8 5 7 7 7 7 6 6 5 3 4 3 3 5 6 7 7 7 6 6 5 5 5 5
3 2 3 3 2 3 3 3 5 4 3 1 2 3 3 2 4 7 10 13 10 7 4 7 9 8 7 5 6 5 5 4 3 5 6 6 6 7 7 6 6 5 6 5
4 2 3 4 1 5 8 5 3 1 2 2 4 5 1 5 9 11 12 10 11 8 6 11 12 10 8 7 5 6 7 6 4 5 5 5 6 7 7 7 6 6 6 5
4 2 2 2 3 4 5 4 1 5 6 6 5 2 4 7 9 12 12 7 5 7 12 15 13 12 11 10 9 7 6 7 6 6 6 6 7 8 8 8 7 6 6 6
2 3 1 3 5 2 6 5 3 2 4 7 3 3 6 10 12 12 9 7 11 14 14 13 14 15 13 10 11 10 9 8 8 8 8 7 7 8 8 9 9 8 7 7
2 2 4 1 4 4 6 8 3 1 3 7 3 5 10 11 12 10 15 14 14 14 12 14 15 15 14 12 11 11 11 11 10 9 8 7 7 9 10 10 10 9 7 7
3 4 7 5 4 1 5 8 4 4 5 4 3 8 11 12 10 15 15 13 13 13 15 15 14 14 14 14 13 13 12 12 10 10 9 9 7 9 10 9 9 9 8 7
3 3 4 0 3 3 9 6 5 3 0 4 7 9 10 12 14 14 13 14 14 15 15 15 14 14 14 14 13 14 14 12 10 10 10 10 9 7 7 10 9 9 8 8
3 2 3 3 4 5 10 4 5 4 2 6 6 8 9 11 13 13 13 13 13 15 14 14 14 15 14 14 14 14 13 13 12 12 11 11 10 8 9 9 10 8 9 8
5 2 3 4 3 1 3 3 2 2 3 3 4 6 8 10 12 13 12 12 12 13 13 13 14 14 14 14 14 14 13 14 13 13 13 10 11 10 9 8 8 9 9 8
4 2 2 5 6 2 2 1 3 2 2 2 4 5 5 6 9 10 10 11 10 11 11 11 12 13 15 15 15 14 14 14 13 13 12 11 9 10 9 9 8 9 10 11
3 2 3 3 2 2 2 3 2 1 2 2 2 5 6 5 7 9 10 9 9 11 10 10 11 12 13 13 14 14 13 13 13 13 10 9 8 7 7 7 7 18 16 19
Wind_Direction
200 226 216 226 221 304 289 323 276 77 61 279 232 244 252 137 176 180 171 248 200 194 179 176 165 162 157 151 147 147 142 136 143 146 126 127 96 90 83 72 61 52 42 36
199 234 45 57 80 227 240 243 246 152 113 263 277 266 256 43 42 33 16 324 273 214 170 173 170 171 171 162 158 151 142 146 141 127 76 76 102 68 75 77 66 46 48 39
270 53 44 275 177 215 227 257 270 269 152 240 276 258 191 99 75 61 48 20 359 296 229 181 174 182 177 171 164 155 146 138 122 110 116 108 110 133 139 114 77 53 50 44
28 53 253 213 115 316 244 45 316 265 242 255 194 211 140 139 135 45 19 7 352 334 300 220 169 224 165 179 154 144 138 133 128 141 150 180 132 127 72 80 78 81 51 54
76 26 12 159 28 327 50 70 126 199 234 305 191 254 117 170 36 2 8 359 352 335 305 280 163 186 164 121 143 135 140 125 107 99 99 104 93 96 102 98 99 81 79 50
76 72 38 28 40 48 126 156 131 166 207 235 221 217 89 22 355 350 354 357 353 344 317 272 209 159 136 126 109 141 116 112 92 88 72 87 104 112 124 115 112 82 73 65
145 52 90 9 229 149 203 190 192 198 194 254 105 201 61 42 13 13 358 358 358 360 343 284 218 160 165 167 149 138 129 127 107 72 94 69 80 84 88 85 68 71 81 64
294 184 357 358 19 353 188 289 292 285 184 119 154 208 84 61 46 31 21 15 12 10 3 344 218 155 173 169 153 138 139 138 138 117 93 98 86 88 85 76 70 69 43 39
333 129 130 40 347 318 119 224 17 299 160 277 129 106 121 49 29 20 17 16 10 12 14 11 340 178 163 154 141 138 133 131 142 142 131 116 109 92 105 99 83 74 73 26
23 276 76 114 259 149 305 3 229 204 251 226 106 140 74 23 12 8 7 7 4 8 16 20 27 146 141 142 135 137 144 155 164 164 174 180 230 216 205 184 174 107 62 328
287 258 131 180 27 8 229 196 242 291 291 310 197 95 26 27 17 6 4 1 358 7 14 18 37 81 133 142 145 155 166 167 178 185 192 200 204 225 227 238 232 222 224 275
25 314 285 44 74 335 325 356 300 282 152 243 299 105 42 36 30 15 7 360 358 16 28 28 32 55 78 110 139 166 189 198 202 192 203 201 208 211 223 222 215 218 234 239
358 179 223 153 177 180 42 27 336 305 283 290 315 103 92 54 42 24 11 6 1 40 27 35 39 38 34 38 51 91 219 221 202 198 205 209 207 205 213 216 209 212 221 237
293 357 324 359 24 6 107 17 9 304 283 6 48 129 97 44 19 7 1 359 8 26 23 15 14 15 14 22 8 7 334 261 237 209 214 218 215 213 208 208 207 202 211 221
4 51 327 50 37 69 125 81 63 72 20 330 49 99 106 39 349 337 339 339 334 344 11 15 4 350 343 342 339 332 302 299 251 241 235 234 222 207 200 197 193 193 212 219
351 146 121 97 108 102 87 58 91 106 37 85 331 193 135 282 298 331 330 326 319 288 339 354 344 331 324 315 315 309 291 278 257 245 243 231 218 208 199 190 191 198 209 205
11 343 252 124 205 286 254 174 133 189 180 254 283 65 187 342 339 338 321 310 306 287 309 321 325 313 302 299 288 293 295 289 271 259 247 237 217 208 199 187 187 195 204 208
331 333 286 6 207 234 101 132 210 293 273 221 237 244 272 332 335 317 287 283 307 322 319 316 310 303 291 297 296 291 285 277 256 258 249 223 215 214 197 188 191 194 198 205
311 285 251 265 235 71 181 208 204 290 314 174 191 288 318 335 326 301 34 357 323 318 308 306 303 296 284 285 296 296 298 285 270 252 245 233 207 209 198 196 194 195 199 200
177 218 262 178 286 277 98 137 102 296 231 167 236 314 321 326 308 318 349 328 312 307 310 310 318 318 304 293 300 297 294 291 285 279 260 232 203 206 207 201 195 192 196 204
208 232 241 236 271 296 155 139 143 259 75 130 307 314 313 303 308 321 318 312 311 311 315 310 314 301 297 296 299 292 293 286 290 292 286 271 201 208 214 204 197 185 185 202
237 219 203 217 250 258 135 140 219 65 222 346 322 324 313 307 312 312 314 313 317 314 314 312 310 305 302 299 294 290 286 291 291 287 281 275 254 217 211 202 194 186 181 193
257 318 345 277 36 20 175 41 61 87 40 334 323 325 318 307 306 316 314 317 315 315 314 313 311 305 307 304 296 288 292 298 296 291 287 281 266 233 217 196 193 184 186 191
190 144 256 329 72 155 240 129 125 76 350 10 323 310 304 301 307 311 312 313 314 314 313 310 309 304 304 303 302 299 302 301 292 285 278 277 268 248 214 203 196 196 187 194
357 174 273 262 277 255 188 185 71 34 353 326 311 287 284 291 294 302 301 306 307 305 304 305 308 303 298 304 301 303 299 296 290 283 276 269 263 253 228 211 204 203 195 190
173 253 225 327 35 325 38 117 112 319 294 300 255 299 293 286 273 293 293 293 288 286 294 302 297 298 299 299 298 298 295 292 289 282 275 265 253 238 230 214 211 213 208 200